User: anonymous   Login
Location: Unspecified
(0.0000°N, 0.0000°E)
Time: 10:24:26
(UTC+00:00)
Language:

KAITUO 1B - Orbit

View from above orbital plane
View from above orbital plane
View from above satellite
View from above satellite

Ground track
Ground track

The orbit data is extracted from the following two-line orbital elements,

1 40912U 15049P   21340.95188278  .00003866  00000-0  16921-3 0  9998
2 40912  97.4433 348.8156 0012108 257.4669 161.0002 15.22588604344433
Epoch (UTC): 06 December 2021 22:50:42
Eccentricity: 0.0012108
inclination: 97.4433°
perigee height: 490 km
apogee height: 506 km
right ascension of ascending node: 348.8156°
argument of perigee: 257.4669°
revolutions per day: 15.22588604
mean anomaly at epoch: 161.0002°
orbit number at epoch: 34443

The dashed part of the orbit path shows where the satellite is in the earth's shadow,  

DLR